Regional Weather Roundup
Issued by NWS Green Bay, WI

Home | Current Version | Previous Version | Graphics & Text | Print | Product List | Glossary Off
Versions: 1 2 3 4 5 6 7 8 9 10 11 12 13 14 15 16 17 18 19 20 21 22 23 24 25 26 27 28 29 30 31 32 33 34 35 36 37 38 39 40 41 42 43 44 45 46 47 48 49 50

000
ASUS43 KGRB 011810
RWRGRB

NORTH-CENTRAL AND NORTHEAST WISCONSIN REGIONAL WEATHER ROUNDUP
NATIONAL WEATHER SERVICE GREEN BAY WI
100 PM CDT WED OCT 01 2014

WIZ005-009-010>012-018-019-011900-
NORTH CENTRAL WISCONSIN

CITY           SKY/WX    TMP DP  RH WIND       PRES   REMARKS
IRONWOOD       NOT AVBL
MANITOWISH WTR CLOUDY    53  46  76 SE9       29.89F
ARBOR VITAE    PTSUNNY   57  48  73 SE13      29.90F
EAGLE RIVER    CLOUDY    55  44  67 SE8       29.92F
LAND O LAKES   CLOUDY    55  46  70 SE13      29.93F
RHINELANDER    MOSUNNY   56  46  69 SE13      29.93F
PHILLIPS       DRIZZLE   51  47  87 SE6       29.88F
ANTIGO         CLOUDY    55  49  82 SE15      29.95F
TOMAHAWK       CLOUDY    55  46  73 SE7       29.91F
MERRILL        PTSUNNY   57  48  73 SE13G18   29.91F
$$

WIZ013-073-011900-
NORTHEAST WISCONSIN

CITY           SKY/WX    TMP DP  RH WIND       PRES   REMARKS
IRON MOUNTAIN  CLOUDY    55  51  86 SE8       29.96F
MARINETTE      NOT AVBL
OCONTO         CLOUDY    54  54 100 SE9       29.99F
$$

WIZ017-030-035>037-045-011900-
CENTRAL WISCONSIN

CITY           SKY/WX    TMP DP  RH WIND       PRES   REMARKS
MEDFORD        CLOUDY    54  47  79 E12G20    29.88F
WAUSAU         MOSUNNY   59  49  69 SE10      29.90F
MOSINEE        CLOUDY    57  50  77 SE12      29.92F
MARSHFIELD       N/A     58  49  72 SE13      29.88F
WISC RAPIDS      N/A     60  49  66 SE12      29.91F
STEVENS POINT    N/A     58  47  67 SE13      29.93F
WAUPACA        MOSUNNY   65  50  58 SE10G18   29.94F
SHAWANO        CLOUDY    62  52  67 S8G16     29.96F
CLINTONVILLE   CLOUDY    63  50  63 S13       29.95F
$$

WIZ038-039-048-051-011900-
FOX VALLEY

CITY           SKY/WX    TMP DP  RH WIND       PRES   REMARKS
NWS GREEN BAY  CLOUDY    62  52  69 SE13      29.97F
APPLETON       PTSUNNY   63  50  63 S17       29.96F
OSHKOSH        SUNNY     64  51  62 SE13G21   29.94F
FOND DU LAC    SUNNY     65  50  58 SE14      29.95F
$$

WIZ022-050-052-011900-
EAST CENTRAL WISCONSIN

CITY           SKY/WX    TMP DP  RH WIND       PRES   REMARKS
STURGEON BAY   NOT AVBL
MANITOWOC      NOT AVBL
SHEBOYGAN      CLOUDY    61  49  64 SE13G21   29.99
$$

LMZ563-521-522-541>543-011900-
LAKESHORE

STATION/POSITION TIME  TEMP    WIND        PRES    VSBY  WAVE
                       AIR SEA DIR/SP/G                  HT/PER
                 (UTC) (F)     (DEG/KT/KT) (MB)    (MI)  (FT/S)
SHEBOYGAN LKSHOR 1800   56 54  140/ 18/ 20 1015.9F
KEWAUNEE LKSHORE 1800   55     140/ 12/ 16 1015.1F
NORTHPORT PIER   1800   56     160/  7/ 12 1016.6S
N MID LAKE BUOY  1800   55 58  160/ 12/ 14 1017.0F         1/ 3
SISTER BAY LKSHO 1700          180/ 17/ 21   N/A
CHAMBERS ISLAND  1800   58     160/  5/ 14 1016.3S
MENOMINEE LKSHOR 1800   55     150/ 14/ 17 1016.3F
$$


USA.gov is the U.S. government's official web portal to all federal, state and local government web resources and services.